Other Public Products
Issued by NWS Charleston, SC

Current Version | Previous Version | Text Only | Print | Product List | Glossary Off
Versions: 1 2 3 4 5 6 7 8 9 10 11 12 13 14 15 16 17 18 19 20 21 22 23 24 25 26 27 28 29 30 31 32 33 34 35 36 37 38 39 40 41 42 43 44 45 46 47 48 49 50

855
FPUS82 KCHS 230227
OPUCHS

TEST...KCHS/KSAV Gateway Observations...TEST
National Weather Service Charleston SC
1000 PM EDT FRI SEP 22 2017

NOTE: "fair" indicates few or no clouds below 12,000 feet with no
significant weather and/or obstructions to visibility.

SCZ050-WAZ558-NCZ071-TXZ119-213-PAZ071-DCZ001-FLZ074-172-MI076-
NYZ176-178-MAZ016-IL014-TNZ027-NJZ106-GAZ044-MD014-230300-

...Gateway Observations for Charleston International...

CITY           SKY/WX    TMP DP  RH WIND       PRES   REMARKS
Chas Airport   CLEAR     75  72  90 NE3       30.00R
Seattle        MOCLDY    63  47  55 S5        30.03S
Charlotte      PTCLDY    69  66  90 CALM      30.04S
Dallas DFW     CLEAR     87  63  44 SE14      29.89R
Dallas Love    PTCLDY    87  64  46 SE14      29.90R
Philladelphia  MOCLDY    73  56  54 NW7       29.98R
Wash National  MOCLDY    76  71  85 CALM      30.01S
Baltimore      CLOUDY    66  66 100 W3        30.00R
Miami          MOCLDY    81  81 100 VRB3      29.86F HX  92
Detroit        PTCLDY    74  65  73 CALM      30.09S
Newark         PTCLDY    76  51  41 N14G25    29.97S
Laguardia      PTCLDY    74  56  53 N9        29.96S
J F K          PTCLDY    74  55  51 N18       29.96S
Boston Logan   DRIZZLE   62  61  96 N23G29    30.00S FOG
Ft. Lauderdale CLOUDY    77  77 100 N6        29.87R THUNDER
Chicago O`Hare CLEAR     82  66  58 SE9       30.02S
Chicago Midway CLEAR     85  68  56 E9        30.03S
Houston Bush   CLEAR     80  72  76 E7        29.91
Houston Hobby  NOT AVBL
Nashville      CLEAR     80  67  64 CALM      30.03R
Atlanta        PTCLDY    76  69  79 SW5       30.03R

$$

GAZ044-118-TXZ119-213-NCZ071-DCZ001-MDZ014-506-PAZ021-071-NJZ106-
NYZ176-178-MAZ106-OHZ011-021-055-MIZ076-KYZ091-ILZ014-INZ047-
MNZ060-ONZ431-230300-

...Gateway Observations for Savannah International...

CITY           SKY/WX    TMP DP  RH WIND       PRES   REMARKS
Savannah Arpt  CLEAR     76  73  91 NE5       30.00R
Atlanta        PTCLDY    76  69  79 SW5       30.03R
Charlotte      PTCLDY    69  66  90 CALM      30.04S
Dallas DFW     CLEAR     87  63  44 SE14      29.89R
Houston Bush   CLEAR     80  72  76 E7        29.91
Wash National  MOCLDY    76  71  85 CALM      30.01S
Wash Dulles    CLOUDY    67  65  93 CALM      30.03R
Baltimore      CLOUDY    66  66 100 W3        30.00R
Philadelphia   MOCLDY    73  56  54 NW7       29.98R
Newark         PTCLDY    76  51  41 N14G25    29.97S
Laguardia      PTCLDY    74  56  53 N9        29.96S
J F K          PTCLDY    74  55  51 N18       29.96S
Boston         DRIZZLE   62  61  96 N23G29    30.00S FOG
Pittsburg      MOCLDY    75  57  53 N3        30.10S
Akron          MOCLDY    72  55  55 E6        30.11S
Cleveland      CLEAR     76  61  59 CALM      30.10S
Cincinnati     CLEAR     76  68  76 CALM      30.07R
Columbus       CLEAR     71  66  84 CALM      30.06F
Detroit        PTCLDY    74  65  73 CALM      30.09S
Chicago O`Hare CLEAR     82  66  58 SE9       30.02S
Minneapolis    CLOUDY    86  69  56 S12       29.82R HX  90
Indianapolis   PTCLDY    77  66  68 CALM      30.06R
Toronto Canada PTCLDY    72  50  46 S2        30.09S

$$




USA.gov is the U.S. government's official web portal to all federal, state and local government web resources and services.